TimeMST,TemperatureF,Dew PointF,Humidity,Sea Level PressureIn,VisibilityMPH,Wind Direction,Wind SpeedMPH,Gust SpeedMPH,PrecipitationIn,Events,Conditions,WindDirDegrees,DateUTC
12:53 AM,28.0,9.0,45,30.34,10.0,ESE,8.1,-,N/A,,Overcast,120,2014-01-27 07:53:00
1:53 AM,28.0,8.1,43,30.32,10.0,ESE,10.4,-,N/A,,Overcast,120,2014-01-27 08:53:00
2:53 AM,27.0,12.9,56,30.33,10.0,NNE,3.5,-,N/A,,Overcast,20,2014-01-27 09:53:00
3:53 AM,28.0,12.0,51,30.34,10.0,NNE,3.5,-,N/A,,Overcast,30,2014-01-27 10:53:00
4:53 AM,26.1,15.1,63,30.34,10.0,Calm,Calm,-,N/A,,Overcast,0,2014-01-27 11:53:00
5:53 AM,23.0,14.0,68,30.35,10.0,West,3.5,-,N/A,,Partly Cloudy,280,2014-01-27 12:53:00
6:53 AM,19.0,12.0,74,30.36,10.0,North,4.6,-,N/A,,Clear,350,2014-01-27 13:53:00
7:53 AM,18.0,10.9,74,30.38,10.0,North,3.5,-,N/A,,Clear,350,2014-01-27 14:53:00
8:53 AM,19.9,12.0,71,30.41,10.0,NNW,4.6,-,N/A,,Clear,340,2014-01-27 15:53:00
10:13 AM,26.6,14.0,59,30.30,10.0,Calm,Calm,-,N/A,,Clear,0,2014-01-27 17:13:00
10:53 AM,30.2,10.4,44,30.30,10.0,Calm,Calm,-,N/A,,Clear,0,2014-01-27 17:53:00
11:53 AM,-9999,-9999,N/A,-9999,-9999.0,North,-9999.0,-,N/A,,Unknown,0,2014-01-27 18:53:00
12:53 PM,-9999,-9999,N/A,30.30,-9999.0,North,-9999.0,-,N/A,,Unknown,0,2014-01-27 19:53:00
1:16 PM,35.6,8.6,33,30.28,10.0,Calm,Calm,-,N/A,,Clear,0,2014-01-27 20:16:00
1:53 PM,35.1,15.1,44,30.27,10.0,West,3.5,-,N/A,,Clear,280,2014-01-27 20:53:00
2:53 PM,37.0,15.1,41,30.26,10.0,North,4.6,-,N/A,,Clear,10,2014-01-27 21:53:00
3:53 PM,35.1,15.1,44,30.28,10.0,North,8.1,-,N/A,,Clear,10,2014-01-27 22:53:00
4:53 PM,34.0,16.0,48,30.30,10.0,North,11.5,-,N/A,,Clear,10,2014-01-27 23:53:00
5:53 PM,30.9,14.0,50,30.29,10.0,North,9.2,-,N/A,,Clear,10,2014-01-28 00:53:00
6:53 PM,27.0,15.1,61,30.31,10.0,West,6.9,-,N/A,,Clear,260,2014-01-28 01:53:00
7:53 PM,26.1,15.1,63,30.32,10.0,East,3.5,-,N/A,,Clear,100,2014-01-28 02:53:00
8:53 PM,23.0,14.0,68,30.32,10.0,Calm,Calm,-,N/A,,Clear,0,2014-01-28 03:53:00
9:53 PM,19.0,12.0,74,30.33,10.0,NNW,3.5,-,N/A,,Clear,340,2014-01-28 04:53:00
10:53 PM,19.0,12.0,74,30.34,10.0,Calm,Calm,-,N/A,,Clear,0,2014-01-28 05:53:00
11:53 PM,18.0,10.9,74,30.34,10.0,Calm,Calm,-,N/A,,Clear,0,2014-01-28 06:53:00